Albuquerque, NM

2:49 AM MST on February 24, 2017 (GMT -0700)
Double Eagle Ii

Weather History for KAEG - October, 2013

Change the Weather History Date:

Wednesday, October 23, 2013

  Actual Average (KABQ) Record (KABQ)
Temperature  
Mean Temperature 49 °F -  
Max Temperature 67 °F 66 °F 80 °F (1950)
Min Temperature 32 °F 40 °F 19 °F (1908)
Degree Days  
Heating Degree Days 16    
Moisture  
Dew Point 22 °F    
Average Humidity 42    
Maximum Humidity 55    
Minimum Humidity 23    
Precipitation  
Precipitation 0.00 in - - ()
Sea Level Pressure  
Sea Level Pressure 30.24 in    
Wind  
Wind Speed 1 mph (NE)    
Max Wind Speed 9 mph    
Max Gust Speed -    
Visibility 10 miles    
Events      
Averages and records for this station are not official NWS values.
T = Trace of Precipitation, MM = Missing Value Source: NWS Daily Summary

Daily Weather History Graph

Daily Weather History Graph

Search for Another Location

Airport or City:

Trip Planner

Search our weather history database for the weather conditions in past years. The results will help you decide how hot, cold, wet, or windy it might be!

Date:

Astronomy

Oct. 23, 2013 Rise Set
Actual Time 7:20 AM MDT 6:21 PM MDT
Civil Twilight 6:54 AM MDT 6:47 PM MDT
Nautical Twilight 6:24 AM MDT 7:17 PM MDT
Astronomical Twilight 5:55 AM MDT 7:46 PM MDT
Moon 10:00 PM MDT (10/23) 11:34 AM MDT (10/23)
Length of Visible Light 11h 53m
Length of Day
11h 01m
Waning Gibbous, 79% of the Moon is Illuminated
Oct 23
Waning Gibbous
Oct 26
Last Quarter
Nov 3
New
Nov 9
First Quarter
Nov 17
Full

Hourly Weather History & Observations

Time (MDT) Temp. Windchill Dew Point Humidity Pressure Visibility Wind Dir Wind Speed Gust Speed Precip Events Conditions
12:15 AM 42.6 °F - 19.2 °F 39% 30.25 in 10.0 mi Calm Calm - N/A   Clear
12:35 AM 40.6 °F - 19.4 °F 43% 30.25 in 10.0 mi Calm Calm - N/A   Clear
12:55 AM 41.4 °F - 18.5 °F 40% 30.25 in 10.0 mi Calm Calm - N/A   Clear
1:15 AM 37.2 °F - 18.3 °F 46% 30.25 in 10.0 mi Calm Calm - N/A   Clear
1:35 AM 35.4 °F - 18.3 °F 50% 30.25 in 10.0 mi Calm Calm - N/A   Clear
1:55 AM 34.0 °F - 18.3 °F 53% 30.25 in 10.0 mi Calm Calm - N/A   Clear
2:15 AM 34.9 °F - 18.3 °F 51% 30.25 in 10.0 mi Calm Calm - N/A   Clear
2:35 AM 32.7 °F - 18.3 °F 55% 30.25 in 10.0 mi Calm Calm - N/A   Clear
2:55 AM 35.8 °F - 18.5 °F 50% 30.25 in 10.0 mi Calm Calm - N/A   Clear
3:15 AM 35.8 °F - 18.3 °F 49% 30.24 in 10.0 mi Calm Calm - N/A   Clear
3:35 AM 34.2 °F 31.2 °F 18.3 °F 52% 30.23 in 10.0 mi NNW 3.5 mph - N/A   Clear
3:55 AM 34.7 °F 31.8 °F 18.3 °F 51% 30.23 in 10.0 mi NNW 3.5 mph - N/A   Clear
4:15 AM 35.8 °F 33.0 °F 18.5 °F 50% 30.23 in 10.0 mi NNW 3.5 mph - N/A   Clear
4:35 AM 35.1 °F 31.0 °F 18.1 °F 50% 30.23 in 10.0 mi NW 4.6 mph - N/A   Clear
4:55 AM 37.4 °F 32.8 °F 18.5 °F 46% 30.24 in 10.0 mi NNW 5.8 mph - N/A   Clear
5:15 AM 35.2 °F 31.2 °F 18.5 °F 51% 30.24 in 10.0 mi NNW 4.6 mph - N/A   Clear
5:35 AM 35.2 °F - 18.5 °F 51% 30.25 in 10.0 mi Calm Calm - N/A   Clear
5:50 AM 33.8 °F - 17.6 °F 52% 30.25 in 10.0 mi Calm Calm - N/A   Clear
6:50 AM 33.8 °F - 17.6 °F 52% 30.26 in 10.0 mi Calm Calm - N/A   Clear
7:50 AM 35.6 °F - 17.6 °F 48% 30.28 in 10.0 mi Calm Calm - N/A   Clear
8:50 AM 46.4 °F 44.3 °F 21.2 °F 37% 30.29 in 10.0 mi NNE 4.6 mph - N/A   Clear
9:50 AM 51.8 °F - 23.0 °F 33% 30.30 in 10.0 mi Variable 5.8 mph - N/A   Clear
10:50 AM 55.4 °F - 24.8 °F 31% 30.29 in 10.0 mi Calm Calm - N/A   Clear
11:50 AM 57.2 °F - 26.6 °F 31% 30.28 in 10.0 mi SSE 4.6 mph - N/A   Clear
12:50 PM 62.6 °F - 26.6 °F 26% 30.25 in 10.0 mi Calm Calm - N/A   Clear
1:50 PM 64.4 °F - 28.4 °F 26% 30.22 in 10.0 mi SE 5.8 mph - N/A   Partly Cloudy
2:50 PM 66.2 °F - 28.4 °F 24% 30.20 in 10.0 mi SE 6.9 mph - N/A   Scattered Clouds
3:50 PM 66.2 °F - 26.6 °F 23% 30.18 in 10.0 mi SSE 8.1 mph - N/A   Scattered Clouds
4:50 PM 66.2 °F - 26.6 °F 23% 30.18 in 10.0 mi SE 9.2 mph - N/A   Scattered Clouds
5:50 PM 60.8 °F - 26.6 °F 27% 30.18 in 10.0 mi Variable 6.9 mph - N/A   Partly Cloudy
6:50 PM 53.6 °F - 26.6 °F 35% 30.18 in 10.0 mi Calm Calm - N/A   Partly Cloudy
7:50 PM 51.8 °F - 24.8 °F 35% 30.19 in 10.0 mi Calm Calm - N/A   Partly Cloudy
8:50 PM 50.0 °F - 23.0 °F 35% - 10.0 mi Calm Calm - N/A   Partly Cloudy
10:15 PM 47.3 °F - 23.0 °F 38% 30.21 in 10.0 mi Calm Calm - N/A   Clear
10:35 PM 46.8 °F - 23.0 °F 39% 30.21 in 10.0 mi Calm Calm - N/A   Clear
10:55 PM 45.5 °F 44.2 °F 23.5 °F 42% 30.21 in 10.0 mi South 3.5 mph - N/A   Clear
11:15 PM 42.3 °F - 24.3 °F 49% 30.21 in 10.0 mi Calm Calm - N/A   Clear
11:35 PM 45.1 °F - 23.9 °F 43% 30.21 in 10.0 mi Calm Calm - N/A   Clear
11:55 PM 43.9 °F - 23.9 °F 45% 30.21 in 10.0 mi Calm Calm - N/A   Clear